Time,TemperatureF,DewpointF,PressureIn,WindDirection,WindDirectionDegrees,WindSpeedMPH,WindSpeedGustMPH,Humidity,HourlyPrecipIn,Conditions,Clouds,dailyrainin,SolarRadiationWatts/m^2,SoftwareType,DateUTC
2013-08-23 00:13:00,64.0,63.0,-100.00,SW,226,1.0,11.0,96,0.00,,,0.00,0.000000,,2013-08-23 04:13:00,
2013-08-23 00:24:00,64.0,63.0,-100.00,SW,226,1.0,11.0,96,0.00,,,0.00,0.000000,,2013-08-23 04:24:00,
2013-08-23 00:34:00,64.0,63.0,-100.00,SW,226,1.0,11.0,96,0.00,,,0.00,0.000000,,2013-08-23 04:34:00,
2013-08-23 01:13:00,64.0,63.0,-100.00,SW,221,1.0,10.0,96,0.00,,,0.00,0.000000,,2013-08-23 05:13:00,
2013-08-23 01:22:00,64.0,63.0,-100.00,SW,221,1.0,10.0,96,0.00,,,0.00,0.000000,,2013-08-23 05:22:00,
2013-08-23 01:34:00,64.0,63.0,-100.00,SW,221,1.0,10.0,96,0.00,,,0.00,0.000000,,2013-08-23 05:34:00,
2013-08-23 02:12:00,64.0,63.0,-100.00,SW,225,3.0,11.0,97,0.00,,,0.00,0.000000,,2013-08-23 06:12:00,
2013-08-23 02:22:00,64.0,63.0,-100.00,SW,225,3.0,11.0,97,0.00,,,0.00,0.000000,,2013-08-23 06:22:00,
2013-08-23 02:32:00,64.0,63.0,-100.00,SW,225,3.0,11.0,97,0.00,,,0.00,0.000000,,2013-08-23 06:32:00,
2013-08-23 03:12:00,63.0,62.0,-100.00,SW,225,1.0,13.0,95,0.00,,,0.00,0.000000,,2013-08-23 07:12:00,
2013-08-23 03:22:00,63.0,62.0,-100.00,SW,225,1.0,13.0,95,0.00,,,0.00,0.000000,,2013-08-23 07:22:00,
2013-08-23 03:32:00,63.0,62.0,-100.00,SW,225,1.0,13.0,95,0.00,,,0.00,0.000000,,2013-08-23 07:32:00,
2013-08-23 04:13:00,65.0,64.0,-100.00,ENE,62,0.0,0.0,95,0.00,,,0.00,0.000000,,2013-08-23 08:13:00,
2013-08-23 04:22:00,65.0,64.0,-100.00,ENE,62,0.0,0.0,95,0.00,,,0.00,0.000000,,2013-08-23 08:22:00,
2013-08-23 04:32:00,65.0,64.0,-100.00,ENE,62,0.0,0.0,95,0.00,,,0.00,0.000000,,2013-08-23 08:32:00,
2013-08-23 05:12:00,64.0,63.0,-100.00,North,353,0.0,0.0,95,0.01,,,0.01,0.000000,,2013-08-23 09:12:00,
2013-08-23 05:21:00,64.0,63.0,-100.00,North,353,0.0,0.0,95,0.01,,,0.01,0.000000,,2013-08-23 09:21:00,
2013-08-23 05:33:00,64.0,63.0,-100.00,North,353,0.0,0.0,95,0.01,,,0.01,0.000000,,2013-08-23 09:33:00,
2013-08-23 06:13:00,63.0,61.0,-100.00,NNW,327,0.0,0.0,93,0.00,,,0.01,0.000000,,2013-08-23 10:13:00,
2013-08-23 06:23:00,63.0,61.0,-100.00,NNW,327,0.0,0.0,93,0.00,,,0.01,0.000000,,2013-08-23 10:23:00,
2013-08-23 06:33:00,63.0,61.0,-100.00,NNW,327,0.0,0.0,93,0.00,,,0.01,0.000000,,2013-08-23 10:33:00,
2013-08-23 07:11:00,61.0,60.0,-100.00,SE,131,0.0,0.0,96,0.00,,,0.01,15.000000,,2013-08-23 11:11:00,
2013-08-23 07:22:00,61.0,60.0,-100.00,SE,131,0.0,0.0,96,0.00,,,0.01,15.000000,,2013-08-23 11:22:00,
2013-08-23 07:33:00,61.0,60.0,-100.00,SE,131,0.0,0.0,96,0.00,,,0.01,15.000000,,2013-08-23 11:33:00,
2013-08-23 08:11:00,65.0,62.0,-100.00,NNW,341,0.0,0.0,89,0.00,,,0.01,96.000000,,2013-08-23 12:11:00,
2013-08-23 08:22:00,65.0,62.0,-100.00,NNW,341,0.0,0.0,89,0.00,,,0.01,96.000000,,2013-08-23 12:22:00,
2013-08-23 08:32:00,65.0,62.0,-100.00,NNW,341,0.0,0.0,89,0.00,,,0.01,96.000000,,2013-08-23 12:32:00,
2013-08-23 09:12:00,68.0,62.0,-100.00,North,10,0.0,0.0,82,0.00,,,0.01,235.000000,,2013-08-23 13:12:00,
2013-08-23 09:22:00,68.0,62.0,-100.00,North,10,0.0,0.0,82,0.00,,,0.01,235.000000,,2013-08-23 13:22:00,
2013-08-23 09:32:00,68.0,62.0,-100.00,North,10,0.0,0.0,82,0.00,,,0.01,235.000000,,2013-08-23 13:32:00,
2013-08-23 10:12:00,69.0,61.0,-100.00,NNE,26,0.0,3.0,76,0.00,,,0.01,391.000000,,2013-08-23 14:12:00,
2013-08-23 10:22:00,69.0,61.0,-100.00,NNE,26,0.0,3.0,76,0.00,,,0.01,391.000000,,2013-08-23 14:22:00,
2013-08-23 10:32:00,69.0,61.0,-100.00,NNE,26,0.0,3.0,76,0.00,,,0.01,391.000000,,2013-08-23 14:32:00,
2013-08-23 10:52:00,-999.0,-99.9,-100.00,North,-999,0.0,-999.0,-999,0.00,,,0.01,,,2013-08-23 14:52:00,
2013-08-23 11:02:00,-999.0,-99.9,-100.00,North,-999,0.0,-999.0,-999,0.00,,,0.01,,,2013-08-23 15:02:00,
2013-08-23 11:12:00,-999.0,-99.9,-100.00,North,-999,0.0,-999.0,-999,0.00,,,0.01,,,2013-08-23 15:12:00,
2013-08-23 11:22:00,-999.0,-99.9,-100.00,North,-999,0.0,-999.0,-999,0.00,,,0.01,,,2013-08-23 15:22:00,
2013-08-23 11:34:00,-999.0,-99.9,-100.00,North,-999,0.0,-999.0,-999,0.00,,,0.01,,,2013-08-23 15:34:00,
2013-08-23 12:14:00,74.0,60.0,-100.00,North,354,4.0,7.0,62,0.00,,,0.01,703.000000,,2013-08-23 16:14:00,
2013-08-23 13:13:00,74.0,60.0,-100.00,NNW,339,3.0,12.0,62,0.00,,,0.01,576.000000,,2013-08-23 17:13:00,
2013-08-23 13:24:00,74.0,60.0,-100.00,NNW,339,3.0,12.0,62,0.00,,,0.01,576.000000,,2013-08-23 17:24:00,
2013-08-23 13:34:00,74.0,60.0,-100.00,NNW,339,3.0,12.0,62,0.00,,,0.01,576.000000,,2013-08-23 17:34:00,
2013-08-23 14:12:00,74.0,58.0,-100.00,NNW,333,3.0,9.0,57,0.00,,,0.01,734.000000,,2013-08-23 18:12:00,
2013-08-23 14:22:00,74.0,58.0,-100.00,NNW,333,3.0,9.0,57,0.00,,,0.01,734.000000,,2013-08-23 18:22:00,
2013-08-23 14:32:00,74.0,58.0,-100.00,NNW,333,3.0,9.0,57,0.00,,,0.01,734.000000,,2013-08-23 18:32:00,
2013-08-23 16:12:00,75.0,54.0,-100.00,NNW,330,5.0,12.0,48,-99.99,,,0.01,785.000000,,2013-08-23 20:12:00,
2013-08-23 16:22:00,75.0,54.0,-100.00,NNW,330,5.0,12.0,48,-99.99,,,0.01,785.000000,,2013-08-23 20:22:00,
2013-08-23 16:32:00,75.0,54.0,-100.00,NNW,330,5.0,12.0,48,-99.99,,,0.01,785.000000,,2013-08-23 20:32:00,
2013-08-23 17:12:00,74.0,51.0,-100.00,NW,321,7.0,15.0,44,0.00,,,0.01,564.000000,,2013-08-23 21:12:00,
2013-08-23 17:22:00,74.0,51.0,-100.00,NW,321,7.0,15.0,44,0.00,,,0.01,564.000000,,2013-08-23 21:22:00,
2013-08-23 17:34:00,74.0,51.0,-100.00,NW,321,7.0,15.0,44,0.00,,,0.01,564.000000,,2013-08-23 21:34:00,
2013-08-23 18:13:00,72.0,51.0,-100.00,NNW,341,3.0,11.0,48,0.00,,,0.01,354.000000,,2013-08-23 22:13:00,
2013-08-23 18:24:00,72.0,51.0,-100.00,NNW,341,3.0,11.0,48,0.00,,,0.01,354.000000,,2013-08-23 22:24:00,
2013-08-23 18:33:00,72.0,51.0,-100.00,NNW,341,3.0,11.0,48,0.00,,,0.01,354.000000,,2013-08-23 22:33:00,
2013-08-23 19:12:00,67.0,53.0,-100.00,NE,49,2.0,7.0,61,0.00,,,0.01,42.000000,,2013-08-23 23:12:00,
2013-08-23 19:22:00,67.0,53.0,-100.00,NE,49,2.0,7.0,61,0.00,,,0.01,42.000000,,2013-08-23 23:22:00,
2013-08-23 19:33:00,67.0,53.0,-100.00,NE,49,2.0,7.0,61,0.00,,,0.01,42.000000,,2013-08-23 23:33:00,
2013-08-23 19:54:00,-999.0,-99.9,-100.00,ENE,72,2.0,-999.0,-999,0.00,,,0.01,,,2013-08-23 23:54:00,
2013-08-23 20:02:00,-999.0,-99.9,-100.00,ENE,72,2.0,-999.0,-999,0.00,,,0.01,,,2013-08-24 00:02:00,
2013-08-23 20:11:00,-999.0,-99.9,-100.00,ENE,72,2.0,-999.0,-999,0.00,,,0.01,,,2013-08-24 00:11:00,
2013-08-23 20:22:00,-999.0,-99.9,-100.00,ENE,72,2.0,-999.0,-999,0.00,,,0.01,,,2013-08-24 00:22:00,
2013-08-23 20:32:00,-999.0,-99.9,-100.00,ENE,72,2.0,-999.0,-999,0.00,,,0.01,,,2013-08-24 00:32:00,
2013-08-23 21:11:00,59.0,51.0,-100.00,ENE,65,3.0,5.0,76,0.00,,,0.01,0.000000,,2013-08-24 01:11:00,
2013-08-23 21:22:00,59.0,51.0,-100.00,ENE,65,3.0,5.0,76,0.00,,,0.01,0.000000,,2013-08-24 01:22:00,
2013-08-23 21:32:00,59.0,51.0,-100.00,ENE,65,3.0,5.0,76,0.00,,,0.01,0.000000,,2013-08-24 01:32:00,
2013-08-23 22:12:00,59.0,51.0,-100.00,East,79,2.0,5.0,75,0.00,,,0.01,0.000000,,2013-08-24 02:12:00,
2013-08-23 22:22:00,59.0,51.0,-100.00,East,79,2.0,5.0,75,0.00,,,0.01,0.000000,,2013-08-24 02:22:00,
2013-08-23 22:32:00,59.0,51.0,-100.00,East,79,2.0,5.0,75,0.00,,,0.01,0.000000,,2013-08-24 02:32:00,
2013-08-23 23:12:00,59.0,50.0,-100.00,ENE,67,3.0,6.0,72,0.00,,,0.01,0.000000,,2013-08-24 03:12:00,
2013-08-23 23:22:00,59.0,50.0,-100.00,ENE,67,3.0,6.0,72,0.00,,,0.01,0.000000,,2013-08-24 03:22:00,
2013-08-23 23:34:00,59.0,50.0,-100.00,ENE,67,3.0,6.0,72,0.00,,,0.01,0.000000,,2013-08-24 03:34:00,